Regional Weather Roundup
Issued by NWS

Home | Current Version | Previous Version | Graphics & Text | Print | Product List | Glossary On
Versions: 1 2 3 4 5 6 7 8 9 10 11 12 13 14 15 16 17 18 19 20 21 22 23 24 25 26 27 28 29 30 31 32 33 34 35 36 37 38 39 40 41 42 43 44 45 46 47 48 49 50
000
ASUS43 KMKX 190621
RWRWI

WISCONSIN REGIONAL WEATHER ROUNDUP
NATIONAL WEATHER SERVICE MILWAUKEE/SULLIVAN WI
100 AM CDT FRI SEP 19 2014

NOTE: "FAIR" INDICATES FEW OR NO CLOUDS BELOW 12,000 FEET WITH NO
SIGNIFICANT WEATHER AND/OR OBSTRUCTIONS TO VISIBILITY.

WIZ001-002-006>008-014>016-023>028-190700-
NORTHWEST WISCONSIN

CITY           SKY/WX    TMP DP  RH WIND       PRES   REMARKS
SUPERIOR ARPT  MOCLDY    47  47  97 E5        29.99F
6HR MIN TEMP:  47; 6HR MAX TEMP:  49;

ASHLAND        CLEAR     38  37  97 CALM      30.02F
6HR MIN TEMP:  38; 6HR MAX TEMP:  47;

HAYWARD        PTCLDY    53  51  93 S8        30.03F
6HR MIN TEMP:  51; 6HR MAX TEMP:  57;

SIREN          CLEAR     55  53  93 S9        30.00S
6HR MIN TEMP:  55; 6HR MAX TEMP:  60;

RICE LAKE      CLEAR     52  50  93 SE9       30.05F
6HR MIN TEMP:  51; 6HR MAX TEMP:  58;

LADYSMITH      CLOUDY    53  50  92 SE6       30.08S
6HR MIN TEMP:  49; 6HR MAX TEMP:  57;

EAU CLAIRE     CLEAR     54  51  90 S8        30.05S
6HR MIN TEMP:  54; 6HR MAX TEMP:  60;

MENOMONIE      CLEAR     52  51  96 SE8       30.05S FOG
6HR MIN TEMP:  52; 6HR MAX TEMP:  62;

NEW RICHMOND   CLEAR     56  55  96 SE7       30.02S
6HR MIN TEMP:  56; 6HR MAX TEMP:  62;

OSCEOLA        PTCLDY    57  57  99 SE7       30.03S
6HR MIN TEMP:  57; 6HR MAX TEMP:  64;

$$

WIZ003>005-009-010-017-018-190700-
NORTH CENTRAL WISCONSIN

CITY           SKY/WX    TMP DP  RH WIND       PRES   REMARKS
WOODRUFF       CLOUDY    52  50  92 S10       30.08F
6HR MIN TEMP:  46; 6HR MAX TEMP:  55;

RHINELANDER    MOCLDY    47  46  97 S7        30.11S FOG
6HR MIN TEMP:  46; 6HR MAX TEMP:  53;

EAGLE RIVER    MOCLDY    45  45 100 CALM      30.09F FOG
6HR MIN TEMP:  45; 6HR MAX TEMP:  51;

LAND O LAKES   CLOUDY    47  46  99 S3        30.10F FOG
6HR MIN TEMP:  41; 6HR MAX TEMP:  50;

PHILLIPS       MOCLDY    49  48  96 S8        30.08S
6HR MIN TEMP:  48; 6HR MAX TEMP:  54;

TOMAHAWK       MOCLDY    46  45  96 CALM      30.11R FOG
6HR MIN TEMP:  45; 6HR MAX TEMP:  50;

MEDFORD        CLEAR     49  48  97 SE8       30.09R FOG
6HR MIN TEMP:  47; 6HR MAX TEMP:  51;

MERRILL        CLEAR     47  47  99 SE5       30.11R FOG
6HR MIN TEMP:  46; 6HR MAX TEMP:  54;

$$

WIZ029-030-035-036-043>047-190700-
CENTRAL WISCONSIN

CITY           SKY/WX    TMP DP  RH WIND       PRES   REMARKS
WAUSAU         MOCLDY    48  47  96 VRB5      30.11F FOG
6HR MIN TEMP:  46; 6HR MAX TEMP:  54;

MOSINEE        MOCLDY    46  46 100 SE6       30.13R FOG
MARSHFIELD     PTCLDY    51  49  92 S7        30.10S FOG
6HR MIN TEMP:  49; 6HR MAX TEMP:  54;

STEVENS POINT  CLEAR     47  47  99 SE7       30.12F FOG
6HR MIN TEMP:  43; 6HR MAX TEMP:  51;

WAUPACA        CLEAR     49  48  95 SE5       30.14F
6HR MIN TEMP:  48; 6HR MAX TEMP:  57;

WAUTOMA        FOG       45  43  93 CALM      30.14F VSB<1/4
6HR MIN TEMP:  43; 6HR MAX TEMP:  56;

WISC RAPIDS    CLEAR     51  49  92 SE8       30.11F
6HR MIN TEMP:  49; 6HR MAX TEMP:  57;

CAMP DOUGLAS   CLEAR     49  49 100 SE5       30.11R
6HR MIN TEMP:  44; 6HR MAX TEMP:  57;

$$

WIZ011>013-019>022-031-037>040-048>050-190700-
NORTHEAST WISCONSIN

CITY           SKY/WX    TMP DP  RH WIND       PRES   REMARKS
ANTIGO         FOG       47  47  99 SE8       30.13F VSB 1
6HR MIN TEMP:  44; 6HR MAX TEMP:  49;

STURGEON BAY   CLEAR     46  43  87 SE5       30.17S
6HR MIN TEMP:  45; 6HR MAX TEMP:  52;

GREEN BAY      CLEAR     45  44  97 CALM      30.16F FOG
6HR MIN TEMP:  44; 6HR MAX TEMP:  52;

MANITOWOC      CLEAR     44  43  96 CALM      30.18S FOG
6HR MIN TEMP:  44; 6HR MAX TEMP:  52;

APPLETON       CLEAR     48  46  93 SE7       30.16S
CLINTONVILLE   CLEAR     45  43  93 CALM      30.14S
OSHKOSH        CLEAR     45  45 100 S5        30.15F
6HR MIN TEMP:  45; 6HR MAX TEMP:  57;

$$

WIZ032>034-041-042-053>061-190700-
SOUTHWEST WISCONSIN

CITY           SKY/WX    TMP DP  RH WIND       PRES   REMARKS
LA CROSSE      CLEAR     58  53  84 S7        30.08R
6HR MIN TEMP:  57; 6HR MAX TEMP:  66;

SPARTA         CLEAR     48  48 100 NW5       30.10R
VIROQUA        FAIR      54  54 100 SE9       30.10R
6HR MIN TEMP:  54; 6HR MAX TEMP:  60;

BOSCOBEL       CLEAR     55  52  89 CALM      30.10F
6HR MIN TEMP:  51; 6HR MAX TEMP:  64;

PRAIRIE DU CHI CLEAR     56  51  81 E5        30.09S
6HR MIN TEMP:  56; 6HR MAX TEMP:  66;

PLATTEVILLE    FAIR      53  52  95 CALM      30.13F
6HR MIN TEMP:  53; 6HR MAX TEMP:  63;

$$

WIZ056-057-062-063-064-067-068-190700-
SOUTH CENTRAL WISCONSIN

CITY           SKY/WX    TMP DP  RH WIND       PRES   REMARKS
BARABOO/DELLS  CLEAR     51  49  95 SE3       30.12F FOG
6HR MIN TEMP:  48; 6HR MAX TEMP:  58;

LONE ROCK      CLEAR     53  49  86 E3        30.12F FOG
6HR MIN TEMP:  52; 6HR MAX TEMP:  62;

WATERTOWN      CLOUDY    50  50 100 SE3       30.16S FOG
6HR MIN TEMP:  47; 6HR MAX TEMP:  58;

MADISON        CLOUDY    52  50  93 SE7       30.16R FOG
6HR MIN TEMP:  51; 6HR MAX TEMP:  62;

MIDDLETON      FAIR      52  52  99 SE5       30.15F
6HR MIN TEMP:  49; 6HR MAX TEMP:  61;

MONROE         CLOUDY    50  50 100 E6        30.15S FOG
JANESVILLE     PTCLDY    50  46  87 CALM      30.15S FOG
$$

WIZ051-052-058>065-066-070>072-190700-
SOUTHEAST WISCONSIN

CITY           SKY/WX    TMP DP  RH WIND       PRES   REMARKS
MILWAUKEE      PTCLDY    52  49  89 CALM      30.18S
6HR MIN TEMP:  51; 6HR MAX TEMP:  57;

WAUKESHA       CLEAR     46  46 100 CALM      30.19R FOG
MILWAUKEE/TIMM MOCLDY    50  46  87 CALM      30.19R
RACINE         CLEAR     53  50  89 CALM      30.19R
6HR MIN TEMP:  50; 6HR MAX TEMP:  57;

BURLINGTON     CLOUDY    46  46 100 N3        30.18R FOG
6HR MIN TEMP:  43; 6HR MAX TEMP:  54;

KENOSHA        FOG       48  48 100 NE3       30.18R VSB 1/2
6HR MIN TEMP:  47; 6HR MAX TEMP:  56;

FOND DU LAC    CLEAR     46  44  93 SE5       30.16F
6HR MIN TEMP:  46; 6HR MAX TEMP:  56; 6HR PCP: TRACE;

SHEBOYGAN      CLEAR     41  41 100 CALM      30.17F
6HR MIN TEMP:  41; 6HR MAX TEMP:  51;

WEST BEND      FOG       43  43 100 CALM      30.18S VSB 1/2
JUNEAU         FOG       49  49  99 CALM      30.17F VSB<1/4
6HR MIN TEMP:  48; 6HR MAX TEMP:  58;

$$

LSZ147-162-190700-
LAKE SUPERIOR

STATION/POSITION TIME  TEMP    WIND        PRES    WAVE
                       AIR SEA DIR/SP/G            HT/PER
                 (UTC) (F)     (DEG/KT/KT) (MB)    (FT/S)
W MID LAKE BUOY  0550   48 47  150/  6/  8 1017.1S   1/ 4
DEVILS ISLAND    0600   50      40/  2/  3 1016.5F
PORT WING        0540   44      CALM  /  3 1016.3F
SAXON HARBOR     0500   54     190/  7/ 14 1016.6S
$$

LMZ867-665-643>646-190700-
LAKE MICHIGAN

STATION/POSITION TIME  TEMP    WIND        PRES    WAVE
                       AIR SEA DIR/SP/G            HT/PER
                 (UTC) (F)     (DEG/KT/KT) (MB)    (FT/S)
N MID LAKE BUOY  0550   56 58  170/  8/ 10 1021.7F   0
NORTHPORT PIER   0500   51     170/  4/  7 1021.7F
SISTER BAY       0427   49        CALM       N/A
KEWAUNEE LAKESHO 0600   45     300/  3/  4 1020.6F
SHEBOYGAN LAKESH 0600   50 49  260/  3/  3 1022.3F
PORT WASHINGTON  0500   48     280/  3/  4 1022.4S
ATWATER BUOY     0600   58     110/  4/  6 1022.9R
MILWAUKEE LAKESH 0600   59     110/  6/  7   N/A
S MID LAKE BUOY  0550   61 62  120/ 14/ 16 1021.8F   2/ 5
KENOSHA   LAKESH 0600   61      90/  8/  9 1021.7S
$$

TC  - TEMPERATURE IN CELSIUS
VSB - VISIBILITY IN STATUTE MILES
WCI - WIND CHILL INDEX
HX  - HEAT INDEX




USA.gov is the U.S. government's official web portal to all federal, state and local government web resources and services.